Regional Weather Roundup
Issued by NWS Grand Forks, ND

Home | Current Version | Previous Version | Text Only | Print | Product List | Glossary Off
Versions: 1 2 3 4 5 6 7 8 9 10 11 12 13 14 15 16 17 18 19 20 21 22 23 24 25 26 27 28 29 30 31 32 33 34 35 36 37 38 39 40 41 42 43 44 45 46 47 48 49 50

000
ASUS43 KFGF 210310
RWRFGF
PRAIRIE TO PINES  WEATHER ROUNDUP
NATIONAL WEATHER SERVICE EASTERN NORTH DAKOTA/GRAND FORKS ND
900 PM CST SAT DEC 20 2014

 **SATELLITE DATA USED TO AUGMENT SKY COVER AT AUTOMATED STATIONS**
 *****  WEATHER ACROSS EASTERN NORTH DAKOTA  *****

CITY           SKY/WX    TMP DP  RH WIND       PRES   REMARKS
GRAND FORKS    LGT SNOW  30  29  96 S15       29.89S VSB 1   WCI  19
GRAND FRKS AFB CLOUDY    30  30 100 S12       29.87S WCI  21
GRAND FRKS NWS   N/A     30 N/A N/A S14         N/A  WCI  20
DEVILS LAKE    CLOUDY    27  21  80 S7        29.79S WCI  19
FARGO          CLOUDY    33  29  85 S21G29    29.90F FOG     WCI  21
WAHPETON ARPT  CLOUDY    32  28  86 S15       29.96R WCI  22
$$

 ***** WEATHER ACROSS CENTRAL AND WESTERN NORTH DAKOTA  *****

CITY           SKY/WX    TMP DP  RH WIND       PRES   REMARKS
BISMARCK       PTCLDY    21  20  96 SE3       29.81F
MINOT          CLOUDY    33  30  88 SW7       29.72F
JAMESTOWN      CLOUDY    28  25  88 S15       29.83S FOG     WCI  16
MINOT AFB      CLOUDY    31  31 100 NW2       29.72F
GARRISON         N/A     28  25  88 CALM      29.75F
WILLISTON      CLEAR     29  24  82 SE5       29.74F WCI  24
DICKINSON      MOCLDY    30  23  75 W8        29.75F WCI  22
HETTINGER      CLOUDY    29  23  78 CALM      29.81F
$$

 *****  OTHER AIRPORT OBSERVATIONS IN OUR AREA  *****

CITY           SKY/WX    TMP DP  RH WIND       PRES   REMARKS
WALHALLA         N/A     28  28 100 S9        29.84F WCI  20
GRAFTON AIRPOR NOT AVBL
VALLEY CITY AR MIX PCPN  28  28 100 S15       29.85F WCI  17
CANDO          FOG       27  27 100 S7        29.80S VSB 1   WCI  19
CAVALIER APRT  MIX PCPN  28  28 100 S14       29.85F WCI  17
GWINNER        CLOUDY    32  32 100 MISG      29.90S
SHEYENNE NWR     N/A     31  29  92 S10       29.95  WCI  22
ROLLA          FOG       23  23 100 MISG      29.77F VSB 1/2
 ***** THE ABOVE OBSERVATIONS ARE NON NWS ARE NOT QUALITY
       CONTROLLED AND MAY MIS-REPORT RAIN FOR SNOW...
$$

  *****  WEATHER ACROSS NORTHERN MINNESOTA  *****

CITY           SKY/WX    TMP DP  RH WIND       PRES   REMARKS
FLAG ISLAND    CLOUDY    28  27  93 S14       29.91F WCI  17
WARROAD        CLOUDY    28  27  93 S9        29.92F FOG     WCI  20
ROSEAU         CLOUDY    30  27  86 S12       29.90F FOG     WCI  21
HALLOCK        CLOUDY    30  28  93 CALM      29.88F FOG
THF RVR FALLS  CLOUDY    30  28  93 S14       29.90F WCI  20
BAUDETTE       CLOUDY    29  27  92 S7        29.93F FOG     WCI  22
WASKISH        CLOUDY    30  28  93 CALM      29.95S
CROOKSTON      LGT SNOW  30  30 100 S17       29.91F WCI  18
STEPHEN NDAWN    N/A     30  28  93 S12         N/A  WCI  21
GREENBUSH NDAW   N/A     28  28 100 S1          N/A
$$
  *****  WEATHER ACROSS CENTRAL AND WEST MINNESOTA  *****

CITY           SKY/WX    TMP DP  RH WIND       PRES   REMARKS
FOSSTON        CLOUDY    28  27  93 S12       29.93R FOG     WCI  18
BEMIDJI        CLOUDY    28  27  96 S13       29.94F FOG     WCI  18
PARK RAPIDS    CLOUDY    29  28  96 S10       29.95F FOG     WCI  20
ELBOW LAKE     CLOUDY    30  29  96 S21       29.96S FOG     WCI  17
WADENA         CLOUDY    28  27  93 SE15      29.96F FOG     WCI  17
DETROIT LAKES  CLOUDY    32  30  93 S18G25    29.94R FOG     WCI  20
MOORHEAD       CLOUDY    32  32 100 S20G25    29.93F FOG     WCI  20
FERGUS FALLS   CLOUDY    30  28  93 S18G24    29.98F FOG     WCI  18
MORRIS MN      CLOUDY    30  28  93 S16       29.96F FOG     WCI  19
STAPLES        CLOUDY    27  27 100 S12       30.00S WCI  16
$$
  *****  WEATHER ELSEWHERE ACROSS MINNESOTA  *****

CITY           SKY/WX    TMP DP  RH WIND       PRES   REMARKS
DULUTH         CLOUDY    30  25  81 SW15      30.04S WCI  19
INTRNTL FALLS  CLOUDY    30  27  88 S5        29.97S
ELY            CLOUDY    28  27  93 S8        30.02S WCI  20
CLOQUET        CLOUDY    28  27  93 S10G17    30.04F FOG     WCI  19
WHEATON        CLOUDY    28  27  93 SE10G20   29.97S FOG     WCI  19
BRAINERD       CLOUDY    27  25  92 S17       30.02F WCI  14
HIBBING        CLOUDY    29  26  89 S6        30.01F WCI  23
ALEXANDRIA     CLOUDY    29  27  92 S18       29.98F WCI  16
SAINT CLOUD    CLOUDY    31  25  78 S10       30.05F WCI  22
MINNEAPOLIS    CLOUDY    31  27  85 S13       30.10F WCI  21
$$

  *****  WEATHER ACROSS SOUTH DAKOTA  *****

CITY           SKY/WX    TMP DP  RH WIND       PRES   REMARKS
SIOUX FALLS    CLOUDY    30  29  96 S12       29.98F FOG     WCI  20
BROOKINGS      NOT AVBL
WATERTOWN      FOG       29  28  96 S16       29.91F VSB 3/4 WCI  17
HURON          CLOUDY    30  29  96 S10       29.94S FOG     WCI  21
SISSETON         N/A     31  30  96 S12       29.93R WCI  22
ABERDEEN       CLOUDY    31  28  89 S14       29.90F FOG     WCI  21
MITCHELL       CLOUDY    32  31  96 S12       29.95F FOG     WCI  23
PIERRE         FOG       18  16  92 CALM      29.87S VSB 1/4
MOBRIDGE       MOCLDY    27  24  89 SE10      29.82S WCI  17
RAPID CITY     CLOUDY    33  26  75 CALM      29.84F
$$

  *****  SOME WEATHER IN NEARBY STATES *****

CITY           SKY/WX    TMP DP  RH WIND       PRES   REMARKS
GLASGOW MT     CLEAR     27  20  75 CALM      29.71F
GREAT FALLS MT PTCLDY    34  25  69 S9        29.63F
CHEYENNE WY    CLOUDY    33  18  53 W8        29.93S
SCOTTSBLUFF NE MOCLDY    30  23  75 NW7       29.92S WCI  23
OMAHA NE       CLOUDY    35  32  88 S12       30.06F FOG
DES MOINES IA  DRIZZLE   36  33  89 SE9       30.12S FOG
DAVENPORT IA   CLOUDY    33  28  81 S9        30.20F HAZE
CHICAGO IL     CLOUDY    32  26  78 S6        30.25S
EAU CLAIRE WI  CLOUDY    31  26  82 S10       30.14S WCI  22
LA CROSSE WI   CLOUDY    33  27  78 S7        30.17F
$$

  *****  SOME NATIONAL WEATHER *****

CITY           SKY/WX    TMP DP  RH WIND       PRES   REMARKS
LA GUARDIA NY  CLOUDY    33  23  66 N6        30.30R
RALEIGH NC     CLOUDY    38  34  85 CALM      30.28S FOG
ATLANTA GA     CLOUDY    49  45  86 E9        30.20R FOG
NEW ORLEANS LA CLOUDY    52  47  83 NE12      30.16R
OKLAHOMA CITY  CLOUDY    42  37  82 S7        30.14F
ALBUQUERQUE NM CLOUDY    36  27  69 SE3       30.10F
SALT LAKE CITY CLOUDY    40  35  83 SE8       30.07R
LOS ANGELES CA PTCLDY    59  55  87 E3        30.15R
BOISE ID       LGT RAIN  41  38  89 E9        29.93F
SEATTLE WA     LGT RAIN  54  51  90 S18G29    29.46F
$$

*** WEATHER ACROSS MANITOBA...SASKATCHEWAN AND ONTARIO ***
                ***ONTARIO***

CITY           SKY/WX    TMP DP  RH WIND       PRES   REMARKS
GERALDTON      CLOUDY    25  23  93 SE5       30.12F WCI  19
THUNDER BAY    CLOUDY    32  30  93 SE5       30.11F
SIOUX LOOKOUT  FRZ DRZL  28  27  93 S8        29.97F WCI  20
TORONTO        NOT AVBL
BIG TROUT LK   CLOUDY    23  21  93 S8        30.01F WCI  14
PICKLE LAKE    NOT AVBL
DRYDEN         CLOUDY    28  27  93 S9        29.95S WCI  20
KENORA         FRZ DRZL  28  27  93 S13       29.91F FOG     WCI  18
$$
                *** MANITOBA***

CITY           SKY/WX    TMP DP  RH WIND       PRES   REMARKS
BRANDON        LGT SNOW  23  23 100 E5        29.77F VSB 1   WCI  17
DAUPHIN        FLURRIES  25  23  93 E3        29.77F
ISLAND LAKE    FLURRIES  23  21  93 SE8       29.90F WCI  14
PILOT MOUND      N/A     25  25 100 CALM        N/A
THE PAS        CLOUDY    19  18  93 S12       29.77F FOG     WCI   7
THOMPSON       LGT SNOW  18  16  93 S8        29.83F WCI   7
WINNIPEG       FRZ DRZL  27  27 100 S18G25    29.86F VSB 1   WCI  13
LYNN LAKE      CLOUDY    14  14 100 S9        29.73F WCI   2
CHURCHILL      FLURRIES  16  14  93 S13G20    29.84F WCI   2
GILLAM         FLURRIES  19  18  93 S5        29.89F WCI  13
$$
                ***SASKATCHEWAN***

CITY           SKY/WX    TMP DP  RH WIND       PRES   REMARKS
ESTEVAN        PTCLDY    25  25 100 SW9       29.69F WCI  15
KINDERSLEY     NOT AVBL
LLOYDMINSTER   NOT AVBL
PRINCE ALBERT  LGT SNOW  19  19 100 CALM      29.66F FOG
REGINA         FOG       18  18 100 S3        29.67F VSB 1/8
YORKTON        CLOUDY    25  25 100 SE8       29.68F WCI  16
N. BATTLEFORD  FOG       19  19 100 S3        29.63F VSB 3/8
LA RONGE       NOT AVBL
SASKATOON      CLOUDY    21  21 100 S3        29.66F
SWIFT CURRENT  CLEAR     25  21  86 SW7       29.61F WCI  17
$$
NOTE: THESE ARE AUTOMATED STATIONS WITH LIMITED QUALITY CONTROL
      "FAIR" INDICATES FEW OR NO CLOUDS BELOW 12,000 FEET WITH NO
      SIGNIFICANT WEATHER AND/OR OBSTRUCTIONS TO VISIBILITY.
      SKY/WX - SKY CONDITION AND SIGNIFICANT WEATHER.
      TMP - AIR TEMPERATURE.    DP   - DEWPOINT TEMPERATURE.
      RH  - RELATIVE HUMIDITY.  PRES - PRESSURE.
      HX  - HEAT INDEX.         WCI  - WIND CHILL INDEX.
$


USA.gov is the U.S. government's official web portal to all federal, state and local government web resources and services.